{"data":{"norad_id":67335,"intl_designator":"2026-003B","name":"STARLINK-36486","alt_names":[],"object_type":"PAYLOAD","status":"ACTIVE","operator":null,"country":"US","launch_date":"2026-01-09","launch_site_code":"AFETR","launch_vehicle":null,"mission":null,"orbit_class":"UNKNOWN","rcs_meters":null,"size_class":null,"mass_kg":null,"dimensions":null,"purposes":["comms"],"wikipedia_slug":null,"has_3d_model":false,"image_url":null,"decayed_at":null,"tle_current":{"epoch":"2026-05-24T07:43:25.101120Z","epoch_age_seconds":130962,"freshness":"FRESH","line1":"1 67335U 26003B   26144.32181830  .00012660  00000+0  46866-3 0  9995","line2":"2 67335  43.0005 159.6936 0001510 269.6953  90.3726 15.27589175 20395","mean_motion":15.27589175,"eccentricity":0.000151,"inclination_deg":43.0005,"raan_deg":159.6936,"arg_perigee_deg":269.6953,"mean_anomaly_deg":90.3726,"bstar":0.00046866,"rev_number":2039,"period_min":94.266182529082,"perigee_km":481.98558797441,"apogee_km":484.05765787853,"semimajor_km":6861.1586229265,"source":"CELESTRAK","updated_at":"2026-05-25T13:38:21.521696Z"}}}